Fort Knox, KY

1:47 AM EDT on July 22, 2017 (GMT -0400)
Godman Army Air Field

Weather History for KFTK - December, 2013

Change the Weather History Date:

Monday, December 16, 2013

  Actual Average Record
Temperature  
Mean Temperature 38 °F -  
Max Temperature 46 °F 42 °F 64 °F (2006)
Min Temperature 30 °F 25 °F 21 °F (2008)
Degree Days  
Heating Degree Days 27    
Moisture  
Dew Point 31 °F    
Average Humidity 80    
Maximum Humidity 88    
Minimum Humidity 63    
Precipitation  
Precipitation 0.00 in - - ()
Sea Level Pressure  
Sea Level Pressure 30.09 in    
Wind  
Wind Speed 8 mph (SSW)    
Max Wind Speed 12 mph    
Max Gust Speed -    
Visibility 10 miles    
Events      
Averages and records for this station are not official NWS values.
T = Trace of Precipitation, MM = Missing Value Source: NWS Daily Summary

Daily Weather History Graph

Daily Weather History Graph

Search for Another Location

Airport or City:

Trip Planner

Search our weather history database for the weather conditions in past years. The results will help you decide how hot, cold, wet, or windy it might be!

Date:

Astronomy

Dec. 16, 2013 Rise Set
Actual Time 7:53 AM EST 5:26 PM EST
Civil Twilight 7:23 AM EST 5:55 PM EST
Nautical Twilight 6:50 AM EST 6:28 PM EST
Astronomical Twilight 6:18 AM EST 7:00 PM EST
Moon 5:15 PM EST (12/16) 7:02 AM EST (12/16)
Length of Visible Light 10h 31m
Length of Day
9h 32m
Full, 100% of the Moon is Illuminated
Dec 16
Full
Dec 17
Full
Dec 25
Last Quarter
Jan 1
New
Jan 7
First Quarter

Hourly Weather History & Observations

Time (EST) Temp. Windchill Dew Point Humidity Pressure Visibility Wind Dir Wind Speed Gust Speed Precip Events Conditions
12:58 AM 30.7 °F 21.4 °F 27.3 °F 87% 30.17 in 10.0 mi SW 11.5 mph - N/A   Overcast
1:58 AM 30.9 °F 23.5 °F 27.5 °F 87% 30.17 in 10.0 mi SSW 8.1 mph - N/A   Overcast
2:58 AM 31.1 °F 23.7 °F 27.7 °F 87% 30.14 in 10.0 mi South 8.1 mph - N/A   Overcast
3:43 AM 32.0 °F 24.8 °F 28.4 °F 87% 30.10 in 10.0 mi South 8.1 mph - N/A   Overcast
3:58 AM 31.1 °F 25.4 °F 28.0 °F 88% 30.13 in 10.0 mi South 5.8 mph - N/A   Overcast
4:58 AM 31.3 °F 22.7 °F 28.2 °F 88% 30.12 in 10.0 mi South 10.4 mph - N/A   Overcast
5:58 AM 31.6 °F 22.6 °F 28.4 °F 88% 30.10 in 10.0 mi South 11.5 mph - N/A   Scattered Clouds
6:58 AM 31.8 °F 24.6 °F 28.4 °F 87% 30.10 in 10.0 mi South 8.1 mph - N/A   Mostly Cloudy
7:58 AM 32.0 °F 24.2 °F 28.6 °F 87% 30.12 in 10.0 mi South 9.2 mph - N/A   Overcast
8:58 AM 32.7 °F 27.3 °F 29.3 °F 87% 30.13 in 10.0 mi South 5.8 mph - N/A   Overcast
9:58 AM 34.2 °F 29.0 °F 30.2 °F 85% 30.11 in 10.0 mi South 5.8 mph - N/A   Overcast
10:58 AM 37.8 °F 31.8 °F 31.1 °F 77% 30.12 in 10.0 mi SSW 8.1 mph - N/A   Scattered Clouds
11:58 AM 40.8 °F 35.0 °F 32.4 °F 72% 30.10 in 10.0 mi SSW 9.2 mph - N/A   Mostly Cloudy
12:58 PM 42.3 °F 36.3 °F 33.1 °F 70% 30.06 in 10.0 mi SW 10.4 mph - N/A   Mostly Cloudy
1:58 PM 44.8 °F 39.4 °F 33.6 °F 65% 30.04 in 10.0 mi SW 10.4 mph - N/A   Scattered Clouds
2:58 PM 46.0 °F 41.0 °F 34.0 °F 63% 30.02 in 10.0 mi SW 10.4 mph - N/A   Partly Cloudy
3:58 PM 46.0 °F 41.0 °F 34.2 °F 63% 30.04 in 10.0 mi SW 10.4 mph - N/A   Partly Cloudy
4:58 PM 45.0 °F 41.2 °F 34.0 °F 65% 30.04 in 10.0 mi SW 6.9 mph - N/A   Clear
5:58 PM 41.7 °F 38.8 °F 33.1 °F 71% 30.06 in 10.0 mi SW 4.6 mph - N/A   Clear
6:58 PM 38.1 °F 34.6 °F 32.0 °F 79% 30.07 in 10.0 mi WSW 4.6 mph - N/A   Clear
7:58 PM 35.8 °F 30.1 °F 31.3 °F 84% 30.07 in 10.0 mi SSW 6.9 mph - N/A   Clear
8:58 PM 36.9 °F 34.3 °F 31.8 °F 82% 30.06 in 10.0 mi SW 3.5 mph - N/A   Clear
9:58 PM 36.7 °F 32.0 °F 31.6 °F 82% 30.06 in 10.0 mi SSW 5.8 mph - N/A   Clear
10:58 PM 38.3 °F 35.9 °F 32.9 °F 81% 30.06 in 10.0 mi SW 3.5 mph - N/A   Overcast
11:58 PM 37.9 °F 33.5 °F 33.6 °F 84% 30.04 in 10.0 mi SSW 5.8 mph - N/A   Overcast